User: anonymous   Login
Location: Caltech
(34.1382°N, 118.1253°W)
Time: 14:55:28
(UTC-08:00)
Language:

Aureole 3 Rocket - Orbit

View from above orbital plane
View from above orbital plane
View from above satellite
View from above satellite

Ground track
Ground track

The orbit data is extracted from the following two-line orbital elements,

1 12849U 81094B   17022.79003445  .00000323  00000-0  25436-4 0  9992
2 12849  82.4934 278.3086 0904730  85.9716 284.4206 13.50037459722317
Epoch (UTC): 22 January 2017 18:57:38
Eccentricity: 0.0904730
inclination: 82.4934°
perigee height: 398 km
apogee height: 1746 km
right ascension of ascending node: 278.3086°
argument of perigee: 85.9716°
revolutions per day: 13.50037459
mean anomaly at epoch: 284.4206°
orbit number at epoch: 72231

The dashed part of the orbit path shows where the satellite is in the earth's shadow,  

DLR